Charlotte, NC

7:31 AM EDT on September 25, 2017 (GMT -0400)
Charlotte-Douglas International

Weather History for KCLT - March, 2003

Change the Weather History Date:

Monday, March 10, 2003

  Actual Average Record
Temperature  
Mean Temperature 52 °F 50 °F  
Max Temperature 62 °F 61 °F 82 °F (1974)
Min Temperature 41 °F 38 °F 17 °F (1932)
Degree Days  
Heating Degree Days 14 16  
Month to date heating degree days 168  
Since 1 July heating degree days 2867  
Cooling Degree Days 0 0  
Month to date cooling degree days 0  
Year to date cooling degree days 0  
Growing Degree Days 2 (Base 50)    
Moisture  
Dew Point 27 °F    
Average Humidity 40    
Maximum Humidity 62    
Minimum Humidity 27    
Precipitation  
Precipitation 0.00 in 0.13 in 1.35 in (1913)
Month to date precipitation 1.34  
Year to date precipitation 8.07  
Snow  
Snow 0.00 in 0.00 in 1.00 in (1924)
Month to date snowfall 0.3  
Since 1 July snowfall 4.0  
Snow Depth -    
Sea Level Pressure  
Sea Level Pressure 30.05 in    
Wind  
Wind Speed 6 mph (NNE)    
Max Wind Speed 13 mph    
Max Gust Speed -    
Visibility 10 miles    
Events      
T = Trace of Precipitation, MM = Missing Value Source: NWS Daily Summary

Daily Weather History Graph

Daily Weather History Graph

Search for Another Location

Airport or City:

Trip Planner

Search our weather history database for the weather conditions in past years. The results will help you decide how hot, cold, wet, or windy it might be!

Date:

Astronomy

Mar. 10, 2003 Rise Set
Actual Time 6:41 AM EST 6:26 PM EST
Civil Twilight 6:16 AM EST 6:52 PM EST
Nautical Twilight 5:47 AM EST 7:21 PM EST
Astronomical Twilight 5:17 AM EST 7:51 PM EST
Moon 10:45 AM EST (3/10) 12:41 AM EST (3/10)
Length of Visible Light 12h 35m
Length of Day
11h 45m
Waxing Crescent, 44% of the Moon is Illuminated
Mar 10
Waxing Crescent
Mar 11
First Quarter
Mar 18
Full
Mar 24
Last Quarter
Apr 1
New

Hourly Weather History & Observations

Time (EST) Temp. Windchill Dew Point Humidity Pressure Visibility Wind Dir Wind Speed Gust Speed Precip Events Conditions
12:51 AM 52.0 °F - 28.0 °F 40% 29.95 in 10.0 mi WNW 4.6 mph - N/A   Partly Cloudy
1:51 AM 50.0 °F - 28.9 °F 44% 29.96 in 10.0 mi Calm Calm - N/A   Partly Cloudy
2:51 AM 46.9 °F - 32.0 °F 56% 29.95 in 10.0 mi WNW 5.8 mph - N/A   Partly Cloudy
3:51 AM 46.9 °F - 30.9 °F 54% 29.95 in 10.0 mi NNW 5.8 mph - N/A   Partly Cloudy
4:51 AM 45.0 °F 41.8 °F 30.0 °F 56% 29.98 in 10.0 mi North 5.8 mph - N/A   Clear
5:51 AM 42.1 °F 37.7 °F 30.0 °F 62% 30.02 in 10.0 mi North 6.9 mph - N/A   Clear
6:51 AM 41.0 °F 36.4 °F 28.9 °F 62% 30.05 in 10.0 mi North 6.9 mph - N/A   Partly Cloudy
7:51 AM 46.0 °F 41.9 °F 32.0 °F 58% 30.07 in 10.0 mi North 8.1 mph - N/A   Clear
8:51 AM 48.9 °F - 27.0 °F 43% 30.09 in 10.0 mi NNW 11.5 mph - N/A   Clear
9:51 AM 52.0 °F - 27.0 °F 38% 30.10 in 10.0 mi North 12.7 mph - N/A   Clear
10:51 AM 55.0 °F - 28.0 °F 35% 30.10 in 10.0 mi WNW 6.9 mph - N/A   Clear
11:51 AM 57.0 °F - 26.1 °F 30% 30.09 in 10.0 mi Variable 4.6 mph - N/A   Clear
12:51 PM 59.0 °F - 26.1 °F 28% 30.06 in 10.0 mi Variable 4.6 mph - N/A   Clear
1:51 PM 61.0 °F - 27.0 °F 27% 30.04 in 10.0 mi Variable 4.6 mph - N/A   Clear
2:51 PM 62.1 °F - 28.9 °F 29% 30.02 in 10.0 mi NNW 8.1 mph - N/A   Clear
3:51 PM 62.1 °F - 28.0 °F 28% 30.02 in 10.0 mi Calm Calm - N/A   Clear
4:51 PM 62.1 °F - 28.9 °F 29% 30.03 in 10.0 mi NNE 4.6 mph - N/A   Partly Cloudy
5:51 PM 59.0 °F - 28.0 °F 31% 30.04 in 10.0 mi East 6.9 mph - N/A   Partly Cloudy
6:51 PM 57.0 °F - 28.0 °F 33% 30.07 in 10.0 mi East 6.9 mph - N/A   Partly Cloudy
7:51 PM 54.0 °F - 28.0 °F 37% 30.09 in 10.0 mi ENE 9.2 mph - N/A   Clear
8:51 PM 51.1 °F - 24.1 °F 35% 30.10 in 10.0 mi ENE 10.4 mph - N/A   Clear
9:51 PM 48.9 °F - 21.9 °F 35% 30.12 in 10.0 mi ENE 10.4 mph - N/A   Clear
10:51 PM 46.9 °F - 19.0 °F 33% 30.13 in 10.0 mi ENE 9.2 mph - N/A   Clear
11:51 PM 45.0 °F 39.7 °F 17.1 °F 33% 30.13 in 10.0 mi ENE 10.4 mph - N/A   Clear